Weather History for Silver Bay, MN

Change the Weather History Date:

Wednesday, July 24, 2013

  Actual Average Record
Temperature  
Mean Temperature 58 °F -  
Max Temperature 71 °F 72 °F 89 °F (2005)
Min Temperature 44 °F 48 °F 35 °F (2002)
Degree Days  
Heating Degree Days 8    
Growing Degree Days 8 (Base 50)    
Moisture  
Dew Point 47 °F    
Average Humidity 67    
Maximum Humidity 93    
Minimum Humidity 40    
Precipitation  
Precipitation 0.00 in - - ()
Sea Level Pressure  
Sea Level Pressure 29.99 in    
Wind  
Wind Speed 2 mph (SSW)    
Max Wind Speed 15 mph    
Max Gust Speed 22 mph    
Visibility 10 miles    
Events      
Averages and records for this station are not official NWS values.
T = Trace of Precipitation, MM = Missing Value Source: NWS Daily Summary

Daily Weather History Graph

Daily Weather History Graph

Search for Another Location

Airport:

Trip Planner

Search our weather history database for the weather conditions in past years. The results will help you decide how hot, cold, wet, or windy it might be!

Date:

Astronomy

Jul. 24, 2013 Rise Set
Actual Time 5:34 AM CDT 8:48 PM CDT
Civil Twilight 4:57 AM CDT 9:25 PM CDT
Nautical Twilight 4:09 AM CDT 10:13 PM CDT
Astronomical Twilight 3:08 AM CDT 11:13 PM CDT
Moon 9:38 PM CDT (7/24) 8:08 AM CDT (7/24)
Length of Visible Light 16h 27m
Length of Day
15h 13m
Waning Gibbous, 94% of the Moon is Illuminated
Jul 24
Waning Gibbous
Jul 29
Last Quarter
Aug 6
New
Aug 14
First Quarter
Aug 20
Full

Hourly Weather History & Observations

Time (CDT) Temp. Dew Point Humidity Pressure Visibility Wind Dir Wind Speed Gust Speed Precip Events Conditions
12:13 AM 46.4 °F 42.8 °F 87% 30.01 in 10.0 mi Calm Calm - N/A   Clear
12:33 AM 46.4 °F 42.8 °F 87% 30.01 in 10.0 mi Calm Calm - N/A   Clear
12:53 AM 46.4 °F 44.6 °F 93% 30.01 in 10.0 mi Calm Calm - N/A   Clear
1:13 AM 46.4 °F 42.8 °F 87% 30.01 in 10.0 mi Calm Calm - N/A   Clear
1:33 AM 44.6 °F 42.8 °F 93% 30.02 in 10.0 mi Calm Calm - N/A   Clear
1:53 AM 46.4 °F 42.8 °F 87% 30.02 in 10.0 mi Calm Calm - N/A   Clear
2:13 AM 44.6 °F 42.8 °F 93% 30.02 in 10.0 mi Calm Calm - N/A   Clear
2:33 AM 44.6 °F 42.8 °F 93% 30.02 in 10.0 mi Calm Calm - N/A   Clear
2:53 AM 44.6 °F 42.8 °F 93% 30.02 in 10.0 mi Calm Calm - N/A   Scattered Clouds
3:13 AM 46.4 °F 42.8 °F 87% 30.02 in 10.0 mi Calm Calm - N/A   Scattered Clouds
3:33 AM 46.4 °F 42.8 °F 87% 30.02 in 10.0 mi Calm Calm - N/A   Mostly Cloudy
3:53 AM 46.4 °F 44.6 °F 93% 30.02 in 10.0 mi Calm Calm - N/A   Overcast
4:13 AM 46.4 °F 42.8 °F 87% 30.02 in 10.0 mi Calm Calm - N/A   Overcast
4:33 AM 46.4 °F 42.8 °F 87% 30.03 in 10.0 mi Calm Calm - N/A   Overcast
4:53 AM 48.2 °F 44.6 °F 87% 30.03 in 10.0 mi Calm Calm - N/A   Overcast
5:13 AM 48.2 °F 44.6 °F 87% 30.02 in 10.0 mi Calm Calm - N/A   Overcast
5:33 AM 48.2 °F 46.4 °F 93% 30.03 in 10.0 mi Calm Calm - N/A   Overcast
5:53 AM 50.0 °F 46.4 °F 87% 30.03 in 10.0 mi Calm Calm - N/A   Overcast
6:13 AM 50.0 °F 46.4 °F 87% 30.03 in 10.0 mi Calm Calm - N/A   Overcast
6:33 AM 50.0 °F 46.4 °F 87% 30.03 in 10.0 mi Calm Calm - N/A   Overcast
6:53 AM 51.8 °F 48.2 °F 88% 30.04 in 10.0 mi Calm Calm - N/A   Mostly Cloudy
7:13 AM 53.6 °F 48.2 °F 82% 30.04 in 10.0 mi Calm Calm - N/A   Mostly Cloudy
7:33 AM 53.6 °F 48.2 °F 82% 30.05 in 10.0 mi Calm Calm - N/A   Mostly Cloudy
7:53 AM 55.4 °F 50.0 °F 82% 30.04 in 10.0 mi Calm Calm - N/A   Mostly Cloudy
8:14 AM 55.4 °F 51.8 °F 88% 30.05 in 10.0 mi Calm Calm - N/A   Mostly Cloudy
8:33 AM 57.2 °F 51.8 °F 82% 30.05 in 10.0 mi Calm Calm - N/A   Mostly Cloudy
8:53 AM 60.8 °F 51.8 °F 72% 30.04 in 10.0 mi Calm Calm - N/A   Mostly Cloudy
9:13 AM 64.4 °F 48.2 °F 56% 30.04 in 10.0 mi Calm Calm - N/A   Mostly Cloudy
9:33 AM 64.4 °F 48.2 °F 56% 30.04 in 10.0 mi Calm Calm - N/A   Mostly Cloudy
9:53 AM 66.2 °F 48.2 °F 52% 30.03 in 10.0 mi Calm Calm - N/A   Scattered Clouds
10:13 AM 68.0 °F 48.2 °F 49% 30.03 in 10.0 mi Calm Calm - N/A   Scattered Clouds
10:33 AM 68.0 °F 44.6 °F 43% 30.03 in 10.0 mi Calm Calm - N/A   Scattered Clouds
10:53 AM 69.8 °F 44.6 °F 40% 30.03 in 10.0 mi Calm Calm - N/A   Scattered Clouds
11:13 AM 68.0 °F 44.6 °F 43% 30.03 in 10.0 mi Calm Calm - N/A   Scattered Clouds
11:33 AM 69.8 °F 44.6 °F 40% 30.02 in 10.0 mi Calm Calm - N/A   Clear
11:53 AM 69.8 °F 48.2 °F 46% 30.01 in 10.0 mi South 9.2 mph - N/A   Clear
12:13 PM 68.0 °F 51.8 °F 56% 30.01 in 10.0 mi South 9.2 mph - N/A   Scattered Clouds
12:33 PM 69.8 °F 46.4 °F 43% 30.00 in 10.0 mi SSW 9.2 mph - N/A   Scattered Clouds
12:53 PM 66.2 °F 48.2 °F 52% 30.00 in 10.0 mi SSW 9.2 mph - N/A   Scattered Clouds
1:13 PM 66.2 °F 48.2 °F 52% 30.00 in 10.0 mi SSW 6.9 mph - N/A   Scattered Clouds
1:33 PM 66.2 °F 48.2 °F 52% 29.99 in 10.0 mi Calm Calm - N/A   Scattered Clouds
1:53 PM 66.2 °F 46.4 °F 49% 29.98 in 10.0 mi SSW 11.5 mph - N/A   Mostly Cloudy
2:13 PM 66.2 °F 46.4 °F 49% 29.98 in 10.0 mi South 9.2 mph - N/A   Mostly Cloudy
2:38 PM 68.0 °F 46.4 °F 46% 29.97 in 10.0 mi South 11.5 mph - N/A   Scattered Clouds
2:53 PM 68.0 °F 46.4 °F 46% 29.97 in 10.0 mi SSW 13.8 mph 18.4 mph N/A   Scattered Clouds
3:13 PM 69.8 °F 46.4 °F 43% 29.96 in 10.0 mi SSW 13.8 mph 21.9 mph N/A   Scattered Clouds
3:33 PM 69.8 °F 46.4 °F 43% 29.95 in 10.0 mi South 15.0 mph 21.9 mph N/A   Scattered Clouds
4:13 PM 68.0 °F 46.4 °F 46% 29.95 in 10.0 mi South 12.7 mph 16.1 mph N/A   Scattered Clouds
4:33 PM 71.6 °F 48.2 °F 43% 29.94 in 10.0 mi SSW 15.0 mph 19.6 mph N/A   Mostly Cloudy
4:53 PM 71.6 °F 46.4 °F 41% 29.94 in 10.0 mi SSW 12.7 mph 18.4 mph N/A   Scattered Clouds
5:13 PM 69.8 °F 44.6 °F 40% 29.94 in 10.0 mi SSW 13.8 mph 18.4 mph N/A   Mostly Cloudy
5:33 PM 68.0 °F 46.4 °F 46% 29.94 in 10.0 mi SSW 10.4 mph - N/A   Scattered Clouds
5:53 PM 66.2 °F 46.4 °F 49% 29.94 in 10.0 mi SSW 8.1 mph - N/A   Mostly Cloudy
6:13 PM 66.2 °F 46.4 °F 49% 29.94 in 10.0 mi SSW 5.8 mph - N/A   Overcast
6:33 PM 66.2 °F 46.4 °F 49% 29.93 in 10.0 mi SSW 8.1 mph 17.3 mph N/A   Overcast
6:53 PM 66.2 °F 48.2 °F 52% 29.93 in 10.0 mi SSW 3.5 mph - N/A   Mostly Cloudy
7:13 PM 66.2 °F 48.2 °F 52% 29.94 in 10.0 mi SSW 4.6 mph - N/A   Scattered Clouds
7:33 PM 66.2 °F 48.2 °F 52% 29.93 in 10.0 mi Calm Calm - N/A   Clear
7:53 PM 66.2 °F 48.2 °F 52% 29.92 in 10.0 mi SSW 8.1 mph - N/A   Scattered Clouds
8:13 PM 66.2 °F 48.2 °F 52% 29.92 in 10.0 mi Calm Calm - N/A   Scattered Clouds
8:53 PM 62.6 °F 51.8 °F 68% 29.92 in 10.0 mi Calm Calm - N/A   Scattered Clouds
9:13 PM 62.6 °F 51.8 °F 68% 29.92 in 10.0 mi Calm Calm - N/A   Mostly Cloudy
9:33 PM 60.8 °F 51.8 °F 72% 29.92 in 10.0 mi Calm Calm - N/A   Scattered Clouds
9:53 PM 60.8 °F 51.8 °F 72% 29.93 in 10.0 mi Calm Calm - N/A   Mostly Cloudy
10:13 PM 60.8 °F 51.8 °F 72% 29.93 in 10.0 mi Calm Calm - N/A   Overcast
10:33 PM 60.8 °F 51.8 °F 72% 29.93 in 10.0 mi Calm Calm - N/A   Overcast
10:53 PM 60.8 °F 51.8 °F 72% 29.92 in 10.0 mi Calm Calm - N/A   Overcast
11:13 PM 59.0 °F 51.8 °F 77% 29.92 in 10.0 mi Calm Calm - N/A   Scattered Clouds
11:33 PM 57.2 °F 51.8 °F 82% 29.92 in 10.0 mi Calm Calm - N/A   Scattered Clouds
11:53 PM 55.4 °F 51.8 °F 88% 29.92 in 10.0 mi Calm Calm - N/A   Scattered Clouds